Location: Starlight Observatory
(38.4029°N, 85.8936°W)
Time: 02:49:31
(UTC-04:00)

Iridium 84 - Visible Passes

Search period start: 30 May 2016 00:00
Search period end: 09 June 2016 00:00
Orbit: 776 x 779 km, 86.4° (Epoch: 29 May)

Date Brightness Start Highest point End Pass type
(mag) Time Alt. Az. Time Alt. Az. Time Alt. Az.
31 May 8.4 05:30:47 10° NE 05:33:52 16° ENE 05:36:57 10° ESE visible
03 Jun 8.1 05:30:05 10° NNE 05:34:10 23° ENE 05:38:13 10° SE visible
04 Jun 8.6 04:58:18 10° NE 05:00:18 12° ENE 05:02:17 10° E visible
06 Jun 7.4 05:29:42 10° NNE 05:34:24 33° E 05:39:03 10° SE visible
07 Jun 8.2 04:57:07 10° NE 05:00:37 18° ENE 05:04:06 10° ESE visible
